This demonstration page uses our WeatherBlox Daily Observations layout. Learn more.

Left ArrowRight Arrow

39.08367, -84.50855

Hourly Observations for March 21, 2018

Temp ( °F °C ) Dew Point ( °F °C ) Humidity (%) Winds ( mph kmh ) Pressure ( in mb ) Visibility ( mi km ) Precip ( " mm )
12:31 am 00:31 Cloudy with Light Snow 32 undefined 31 -0.6 96 96 N 8 13 29.71 1006 1 2 0.01 0.25
12:53 am 00:53 Cloudy with Light Snow 32 undefined 31 -0.6 96 96 N 7 11 29.70 1006 2 3 0.02 0.51
1:05 am 01:05 Cloudy with Light Snow 32 undefined 31 -0.6 96 96 N 9 15 29.71 1006 2 3 N/A
1:17 am 01:17 Cloudy with Light Snow 32 undefined 30 -1.1 92 92 N 9 15 29.71 1006 2 3 N/A
1:31 am 01:31 Cloudy with Light Snow 32 undefined 30 -1.1 92 92 N 10 17 29.71 1006 3 4 0.01 0.25
1:45 am 01:45 Cloudy with Light Snow 32 undefined 30 -1.1 92 92 N 9 15 29.71 1006 3 5 0.01 0.25
1:53 am 01:53 Cloudy with Light Snow 32 undefined 30 -1.1 92 92 N 10 17 29.70 1006 5 8 0.01 0.25
2:03 am 02:03 Cloudy with Light Snow 32 undefined 30 -1.1 92 92 N 10 17 29.71 1006 5 8 N/A
2:13 am 02:13 Cloudy with Light Snow 32 undefined 30 -1.1 92 92 N 8 13 29.71 1006 3 4 N/A
2:24 am 02:24 Cloudy with Light Snow 31 -0.6 30 -1.1 96 96 N 9 15 29.71 1006 2 2 N/A
2:35 am 02:35 Cloudy with Light Snow 31 -0.6 30 -1.1 96 96 NNW 8 13 29.71 1006 2 3 N/A
2:47 am 02:47 Cloudy with Light Snow 30 -1 30 -1 100 100 NNW 8 13 29.71 1006 2 2 0.01 0.25
2:48 am 02:48 Cloudy with Light Snow 30 -1 30 -1 100 100 NNW 8 13 29.71 1006 2 2 0.01 0.25
2:53 am 02:53 Cloudy with Light Snow 31 -0.6 30 -1.1 96 96 NNW 8 13 29.70 1006 2 2 0.01 0.25
3:25 am 03:25 Cloudy with Light Snow 31 -0.6 30 -1.1 96 96 NNW 10 17 29.71 1006 2 3 0.01 0.25
3:53 am 03:53 Cloudy with Light Snow 31 -0.6 30 -1.1 96 96 NNW 12 19 29.69 1005 2 2 0.02 0.51
4:53 am 04:53 Cloudy with Light Snow 31 -0.6 30 -1.1 96 96 NNW 14 22 29.69 1005 2 2 0.02 0.51
5:23 am 05:23 Cloudy with Light Snow 31 -0.6 30 -1.1 96 96 NW 7 11 29.71 1006 1 2 N/A
5:42 am 05:42 Cloudy with Light Snow 30 -1.1 29 -1.7 96 96 NNW 12 19 29.74 1007 2 3 0.01 0.25
5:53 am 05:53 Cloudy with Light Snow 30 -1.1 29 -1.7 96 96 NNW 7 11 29.71 1006 2 3 0.01 0.25
6:00 am 06:00 Cloudy with Light Snow 30 -1.1 29 -1.7 96 96 NW 12 19 29.74 1007 2 2 N/A
6:20 am 06:20 Cloudy with Light Snow 30 -1.1 28 -2.2 92 92 NNW 10 17 29.74 1007 2 3 0.01 0.25
6:30 am 06:30 Cloudy with Light Snow 30 -1.1 27 -2.8 88 88 NNW 13 20 29.74 1007 3 5 0.01 0.25
6:53 am 06:53 Cloudy with Light Snow 30 -1.1 28 -2.2 92 92 NNW 13 20 29.73 1007 4 6 0.01 0.25
7:53 am 07:53 Cloudy with Light Snow 30 -1.1 27 -2.8 88 88 NNW 17 28 29.76 1008 3 5 N/A
8:53 am 08:53 Cloudy with Light Snow 30 -1.1 27 -2.8 88 88 NNW 13 20 29.79 1009 3 5 N/A
9:17 am 09:17 Cloudy with Light Snow 30 -1.1 27 -2.8 88 88 NNW 14 22 29.83 1010 3 5 N/A
9:53 am 09:53 Cloudy with Light Snow 30 -1.1 27 -2.8 88 88 NNW 15 24 29.81 1010 3 5 N/A
10:53 am 10:53 Cloudy with Light Snow 31 -0.6 27 -2.8 85 85 NNW 14 22 29.84 1011 3 5 N/A
11:08 am 11:08 Cloudy with Light Snow 31 -0.6 27 -2.8 85 85 NNW 16 26 29.85 1011 2 2 N/A
11:53 am 11:53 Cloudy with Light Snow 32 undefined 28 -2.2 85 85 NNW 15 24 29.88 1012 1 2 N/A
12:28 pm 12:28 Cloudy with Light Snow 32 undefined 28 -2.2 85 85 N 14 22 29.91 1013 2 3 N/A
12:45 pm 12:45 Cloudy with Light Snow 32 undefined 28 -2.2 85 85 N 18 30 29.94 1014 3 5 N/A
12:53 pm 12:53 Cloudy with Light Snow 32 undefined 28 -2.2 85 85 NNW 12 19 29.91 1013 6 10 N/A
1:53 pm 13:53 Cloudy 32 undefined 27 -2.8 82 82 NNW 17 28 29.95 1014 10 16 N/A
2:53 pm 14:53 Cloudy 33 0.6 27 -2.8 78 78 NNW 15 24 29.97 1015 10 16 N/A
3:53 pm 15:53 Cloudy 34 1.1 26 -3.3 73 73 NNW 15 24 30.00 1016 10 16 N/A
4:40 pm 16:40 Cloudy 34 1.1 27 -2.8 76 76 NNW 8 13 30.00 1016 10 16 N/A
4:53 pm 16:53 Cloudy 35 1.7 26 -3.3 70 70 NNW 12 19 30.03 1017 10 16 N/A
5:53 pm 17:53 Cloudy 36 2.2 26 -3.3 67 67 NNW 15 24 30.06 1018 10 16 N/A
6:53 pm 18:53 Cloudy 36 2.2 27 -2.8 70 70 W 7 11 30.09 1019 10 16 N/A
7:53 pm 19:53 Mostly Cloudy 36 2.2 26 -3.3 67 67 WNW 6 9 30.12 1020 10 16 N/A
8:53 pm 20:53 Cloudy 36 2.2 25 -3.9 64 64 NW 3 6 30.14 1021 10 16 N/A
9:53 pm 21:53 Cloudy 37 2.8 25 -3.9 62 62 WNW 3 6 30.16 1021 10 16 N/A
10:53 pm 22:53 Mostly Cloudy 33 0.6 29 -1.7 85 85 N N/A 30.18 1022 10 16 N/A
11:53 pm 23:53 Mostly Clear 30 -1.1 28 -2.2 92 92 N N/A 30.18 1022 10 16 N/A

Powered by AerisWeather